Location: Newark
(40.7360°N, 74.1730°W)
Time: 21:38:26
(UTC-05:00)

ISS - Visible Passes

Search period start: 31 January 2023 00:00
Search period end: 10 February 2023 00:00
Orbit: 412 x 419 km, 51.6° (Epoch: 31 January)

Date Brightness Start Highest point End Pass type
(mag) Time Alt. Az. Time Alt. Az. Time Alt. Az.
31 Jan -2.4 17:57:25 10° NW 18:00:17 25° NNE 18:02:24 14° ENE visible
31 Jan -1.3 19:33:54 10° WNW 19:35:20 23° WNW 19:35:20 23° WNW visible
01 Feb -3.9 18:45:09 10° NW 18:48:32 86° NE 18:49:10 56° ESE visible
02 Feb -3.5 17:56:29 10° NW 17:59:48 50° NNE 18:03:04 10° ESE visible
02 Feb -1.2 19:33:50 10° W 19:36:09 19° SW 19:36:09 19° SW visible
03 Feb -2.1 18:44:37 10° WNW 18:47:40 32° SW 18:50:26 12° SSE visible
04 Feb -3.1 17:55:40 10° WNW 17:59:00 59° SW 18:02:18 10° SE visible
05 Feb -0.5 18:45:13 10° WSW 18:46:31 12° SW 18:47:48 10° SSW visible
06 Feb -0.9 17:55:19 10° W 17:57:54 21° SW 18:00:28 10° S visible
